User: anonymous
Location: Nirvana
(45.0297°N, 77.2628°W)
Time: 12:47:56
(UTC-04:00)
Language:

H-2A R/B - Orbit

View from above orbital plane
View from above orbital plane
View from above satellite
View from above satellite

Ground track
Ground track

The orbit data is extracted from the following two-line orbital elements,

1 27601U 02056E   14107.86085603  .00000403  00000-0  16319-3 0   641
2 27601 098.4827 191.9108 0073831 117.3122 019.3812 14.31342975592362
Epoch (UTC): 17 April 2014 20:39:37
Eccentricity: 0.0073831
inclination: 98.4827°
perigee height: 734 km
apogee height: 840 km
right ascension of ascending node: 191.9108°
argument of perigee: 117.3122°
revolutions per day: 14.31342975
mean anomaly at epoch: 19.3812°
orbit number at epoch: 59236

The dashed part of the orbit path shows where the satellite is in the earth's shadow,  

DLR